Regional Weather Roundup
Issued by NWS

Home | Current Version | Previous Version | Text Only | Print | Product List | Glossary On
Versions: 1 2 3 4 5 6 7 8 9 10 11 12 13 14 15 16 17 18 19 20 21 22 23 24 25 26 27 28 29 30 31 32 33 34 35 36 37 38 39 40 41 42 43 44 45 46 47 48 49 50
000
ASUS43 KDTX 230801
RWRMI
MICHIGAN HOURLY REGIONAL WEATHER ROUNDUP
NATIONAL WEATHER SERVICE DETROIT/PONTIAC MI
400 AM EDT TUE AUG 23 2016

NOTE: "FAIR" INDICATES FEW OR NO CLOUDS BELOW 12,000 FEET WITH NO
SIGNIFICANT WEATHER AND/OR OBSTRUCTION TO VISIBILITY.

MIZ047>049-052>055-059>063-066>070-074>076-081>083-230900-
SOUTHEAST LOWER MICHIGAN

CITY           SKY/WX    TMP DP  RH WIND       PRES   REMARKS
ADRIAN         CLEAR     56  55  97 CALM      30.26R
ALMA           CLEAR     56  56 100 CALM      30.22S
ANN ARBOR      CLEAR     50  50 100 CALM      30.24S FOG
BAD AXE        CLEAR     57  54  89 SW5       30.22S
CARO           CLEAR     54  54  99 CALM      30.22S
DETROIT CITY   CLEAR     61  56  83 SW3       30.25R
DETROIT        PTCLDY    61  55  81 CALM      30.26R
FLINT          CLEAR     62  54  74 S3        30.24R
GROSSE ILE     CLEAR     66  55  66 SW5       30.24R
HILLSDALE      CLEAR     54  52  94 CALM      30.24S
HOWELL         CLEAR     61  54  78 SW3       30.24S

CITY           SKY/WX    TMP DP  RH WIND       PRES   REMARKS
JACKSON        CLEAR     58  55  90 CALM      30.24S
LAMBERTVILLE   CLEAR     57  55  94 CALM      30.25S
LANSING        CLEAR     59  54  83 CALM      30.24R
LAPEER         NOT AVBL
MASON          CLEAR     57  53  86 S3        30.24S
MONROE         CLEAR     55  55  99 CALM      30.25R
MT. CLEMENS    CLEAR     62  53  72 W3        30.23R
PONTIAC        CLEAR     58  54  86 CALM      30.24S
PORT HURON       N/A     54  54 100 CALM      30.24S FOG
TRI CITIES     CLEAR     61  57  87 SW6       30.22F
MIDLAND        FAIR      55  55 100 CALM      30.21S
TROY           CLEAR     63  53  70 SW3       30.27R
SAGINAW HB     CLEAR     57  54  88 SW5       30.21F
$$
MIZ043>046-050>051-056>058-064>065-071>073-077>080-230900-
SOUTHWEST LOWER MICHIGAN

CITY           SKY/WX    TMP DP  RH WIND       PRES   REMARKS
BATTLE CREEK   CLEAR     57  56  96 CALM      30.23S
BENTON HARBOR  CLEAR     62  56  80 S5        30.20S
BIG RAPIDS     PTCLDY    56  55  96 CALM      30.21S
COLDWATER      CLEAR     58  57  97 CALM      30.24S
FREMONT        FAIR      59  55  87 CALM      30.19S
HOLLAND        CLEAR     59  55  87 S5        30.20S
GRAND RAPIDS   CLEAR     59  55  87 S8        30.21R
IONIA          FAIR      56  54  91 CALM      30.22R
KALAMAZOO      CLEAR     60  56  86 SE3       30.22S
LUDINGTON      CLEAR     57  56  95 CALM      30.17S
MARSHALL       CLEAR     57  57 100 CALM      30.23S
MOUNT PLEASANT CLEAR     55  54  95 CALM      30.21S
MUSKEGON       CLEAR     71  60  68 SW8       30.19R
SOUTH HAVEN    CLEAR     60  58  92 CALM      30.20S
$$
MIZ016>042-230900-
NORTHERN LOWER MICHIGAN

CITY           SKY/WX    TMP DP  RH WIND       PRES   REMARKS
ALPENA         CLOUDY    65  52  62 CALM      30.14R
BEAVER ISLAND  CLOUDY    69  63  83 SW14G25   30.07S
BELLAIRE       LGT RAIN  63  58  83 S7        30.16F
CADILLAC       CLOUDY    58  55  91 CALM      30.20S
CHARLEVOIX     LGT RAIN  66  63  90 SW13G24   30.13R
FRANKFORT      CLOUDY    66  57  73 E3        30.16S
GAYLORD        RAIN      62  55  77 SW20G31   30.14F
GRAYLING       LGT RAIN  60  57  91 CALM      30.18F
HARBOR SPRINGS MOCLDY    67  61  81 SW9G17    30.11S
HOUGHTON LAKE  PTCLDY    64  55  72 SW8       30.20F
MANISTEE       PTCLDY    59  56  89 E5        30.17S
OSCODA         CLOUDY    62  54  74 SW7       30.17S
PELLSTON       CLOUDY    67  58  72 CALM      30.10F
ROGERS CITY    CLOUDY    62  55  76 S5        30.13R
TRAVERSE CITY  CLOUDY    64  60  87 CALM      30.15S
$$
MIZ007>008-015-230900-
EASTERN UPPER MICHIGAN

CITY           SKY/WX    TMP DP  RH WIND       PRES   REMARKS
KINROSS        PTCLDY    64  59  83 SW6       30.08S
MACKINAC ISLAN CLOUDY    68  62  79 SW17G29   30.08F
NEWBERRY       CLOUDY    65  60  84 SW10      30.06F
S. S. MARIE    CLOUDY    61  57  87 SW3       30.06F
MUNISING         N/A     68  62  81 S12G23    30.02R
$$
MIZ004>006-011>014-085-230900-
CENTRAL UPPER MICHIGAN

CITY           SKY/WX    TMP DP  RH WIND       PRES   REMARKS
MANISTIQUE     MOCLDY    67  64  88 SW10G17   30.06S
ESCANABA       CLOUDY    69  63  81 S12       30.06F
MENOMINEE      LGT RAIN N/A N/A N/A S9        30.10F
SAWYER-GWINN   CLEAR     61  59  93 SW10      30.05S
$$
MIZ001>003-009>011-084-230900-
WESTERN UPPER MICHIGAN

CITY           SKY/WX    TMP DP  RH WIND       PRES   REMARKS
IRON MOUNTAIN  MOCLDY    62  58  86 S8        30.06S
HOUGHTON       CLOUDY    66  60  81 SW12      29.96S
COPPER HARBOR    N/A     70  61  73 W13G24    29.92S
IRONWOOD       CLEAR     68  60  75 S15G24    29.97S
$$

ABBREVIATIONS USED IN REMARKS
   TC - TEMPERATURE IN CELSIUS
  WCI - WIND CHILL INDEX
   HX - HEAT INDEX
  VSB - VISIBILITY





USA.gov is the U.S. government's official web portal to all federal, state and local government web resources and services.